[[{"header":{"parameterUnit":"m.s-1","parameterCategory":1,"la1":30.2991,"la2":30.254,"lo1":-89.0895,"lo2":-89.0444,"dy":0.0017,"dx":0.0017,"nx":28,"ny":28,"refTime":"2024-07-06T21:00:00:Z","depth":0,"parameterNumber":2,"parameterNumberName":"U-component_of_WINDS"},"data":[0,0,0,0,0,0,0,0,0,0,0,0,0,0,0,0,0,0,0,0,0,0,0,0,0,0,0,0,0,0,0,0,0,0,0,0,0,0,0,0,0,0,0,0,0,0,0,0,0,0,0,0,0,0,0,0,0,0,0.7599,0.76,0,0.7688,0.7689,0.769,0.7717,0.7717,0.7716,0.7716,0.7806,0.7808,0.7811,0,0,0,0,0,0,0,0,0,0,0,0,0,0.7451,0.7454,0.7599,0.76,0.7601,0.7688,0.7689,0.769,0.7717,0.7717,0.7716,0.7716,0.7805,0.7808,0.7811,0,0,0,0,0,0,0,0,0,0,0,0,0,0.7525,0.7455,0.7599,0.7625,0.7629,0.7688,0.7689,0.7691,0.7717,0.7717,0.7716,0.7715,0.7804,0.7808,0.7812,0.7851,0,0,0.7825,0.7826,0,0,0,0,0,0,0,0,0.7521,0.7531,0.762,0.7624,0.7627,0.7691,0.767,0.7744,0.7717,0.7683,0.7716,0.7715,0.7768,0.7775,0.7793,0.7855,0.7859,0.7825,0.7827,0.7829,0.783,0,0,0,0,0,0,0,0.7516,0.7527,0.7634,0.7622,0.7626,0.7632,0.7642,0.7684,0.7728,0.7686,0.7689,0.7699,0.777,0.7789,0.7795,0.786,0.7825,0.7829,0.7831,0.7833,0.7957,0.7958,0,0,0,0,0,0,0.7507,0.7523,0.7632,0.7637,0.7572,0.7635,0.7646,0.7671,0.7728,0.7736,0.7699,0.77,0.7782,0.779,0.7798,0.7847,0.7829,0.7833,0.7836,0.7956,0.7957,0.7958,0,0,0,0,0,0,0.7503,0.7516,0.7628,0.758,0.7595,0.7638,0.7666,0.7673,0.7692,0.7738,0.7745,0.7711,0.7782,0.7793,0.7837,0.785,0.7835,0.7839,0.7955,0.7957,0.7958,0.7944,0,0,0,0,0,0,0.7499,0.7515,0.753,0.7581,0.7598,0.7666,0.7667,0.7675,0.77,0.7701,0.7751,0.7758,0.7782,0.7831,0.7841,0.7856,0.7842,0.7954,0.7956,0.7957,0.7944,0.7945,0.7946,0,0,0,0,0,0.7494,0.7523,0.7531,0.7544,0.7618,0.7666,0.7676,0.7703,0.7701,0.7716,0.7745,0.7757,0.7847,0.7835,0.7847,0.7863,0.7954,0.7956,0.7957,0.7943,0.7945,0.7946,0,0,0,0,0,0,0.7473,0.753,0.754,0.7587,0.7621,0.7671,0.7692,0.7704,0.774,0.774,0.7772,0.7783,0.7825,0.7849,0.7834,0.7903,0.7901,0.7905,0.7886,0.7888,0.7889,0.7882,0.7846,0,0,0,0,0,0.7474,0.7509,0.7557,0.7594,0.7611,0.7648,0.767,0.7688,0.7725,0.774,0.7772,0.7808,0.7844,0.7868,0.7904,0.7948,0.7958,0.7965,0.7966,0.7966,0.7969,0.7993,0.7996,0.7964,0.7964,0.7964,0,0,0.7477,0.7512,0.7532,0.759,0.762,0.7654,0.766,0.7697,0.7723,0.7746,0.779,0.7814,0.7856,0.79,0.7921,0.7921,0.7981,0.7968,0.7969,0.7971,0.7995,0.7998,0.8001,0.7965,0.7965,0.7965,0,0,0.7498,0.7529,0.7563,0.7592,0.7636,0.766,0.7668,0.7716,0.7733,0.7778,0.7795,0.7826,0.7889,0.7917,0.794,0.7971,0.7983,0.7982,0.7988,0.801,0.8013,0.8015,0.8026,0.8029,0.7985,0.7985,0.7985,0,0.7495,0.7549,0.7578,0.7614,0.7638,0.7661,0.7694,0.7721,0.7774,0.779,0.779,0.7868,0.7898,0.7948,0.7956,0.7974,0.7983,0.7977,0.801,0.8013,0.8016,0.8026,0.803,0.7985,0.7985,0.7985,0.7985,0,0.7543,0.7579,0.7601,0.7652,0.7679,0.7713,0.7747,0.7771,0.7786,0.781,0.7855,0.7891,0.7935,0.7948,0.7964,0.8001,0.7999,0.8004,0.8002,0.8018,0.8028,0.8032,0.7984,0.7985,0.7985,0.7985,0,0,0.7554,0.762,0.7628,0.7651,0.77,0.7729,0.7764,0.7807,0.7826,0.7862,0.7891,0.7943,0.7948,0.7973,0.7992,0.8012,0.8034,0.8015,0.8016,0.8016,0.8075,0.8071,0.8075,0.8042,0.8043,0.8043,0.8072,0,0.7581,0.7645,0.7672,0.7723,0.7756,0.7778,0.7808,0.7841,0.7865,0.7896,0.7922,0.7958,0.7962,0.7978,0.7999,0.8027,0.8046,0.8025,0.8069,0.807,0.8057,0.808,0.8076,0.8101,0.8076,0.8076,0.8077,0,0.7622,0.7658,0.7712,0.7757,0.7772,0.7799,0.7839,0.7869,0.7907,0.7923,0.7951,0.7969,0.8006,0.8002,0.8052,0.8037,0.8057,0.8073,0.8075,0.8079,0.8074,0.8084,0.811,0.8113,0.8084,0.8083,0.8083,0,0.7623,0.7685,0.7725,0.7744,0.7798,0.7816,0.784,0.7877,0.7901,0.7936,0.7951,0.799,0.8012,0.8041,0.8069,0.8064,0.8116,0.8115,0.8129,0.8129,0.8139,0.8138,0.8166,0.8153,0.8153,0.8153,0.8153,0,0.765,0.7682,0.7727,0.7751,0.7787,0.7818,0.7852,0.7877,0.791,0.7939,0.7961,0.7987,0.8023,0.8054,0.8076,0.8113,0.8123,0.8136,0.8141,0.8134,0.8132,0.8146,0.8145,0.8154,0.8154,0.8153,0.8153,0,0.7657,0.7689,0.7734,0.7781,0.7793,0.7818,0.7858,0.7882,0.7907,0.7943,0.7954,0.7992,0.803,0.806,0.811,0.8124,0.8163,0.817,0.815,0.8153,0.8166,0.8164,0.8204,0.821,0.8193,0.8193,0.8193,0,0.7672,0.7697,0.7747,0.7768,0.7791,0.7825,0.7849,0.788,0.7904,0.7949,0.7967,0.8006,0.8039,0.8099,0.813,0.8168,0.8175,0.8187,0.8181,0.8172,0.8174,0.8172,0.8174,0.8187,0.8187,0.8187,0.8187,0,0.7695,0.7709,0.7743,0.7782,0.781,0.7842,0.7875,0.7891,0.7928,0.7954,0.7992,0.8018,0.8068,0.8106,0.8147,0.8171,0.8185,0.8188,0.8194,0.8186,0.8173,0.8179,0.8151,0.8187,0.8187,0.8187,0.8187,0.8187,0.7706,0.7728,0.7767,0.7804,0.7832,0.7862,0.7887,0.7914,0.7947,0.799,0.8006,0.8046,0.8083,0.8139,0.8162,0.8193,0.8195,0.8203,0.8204,0.8206,0.8204,0.8169,0.8201,0.8201,0.8201,0.8201,0.8201,0,0.7728,0.7754,0.7788,0.7833,0.7862,0.7873,0.7909,0.7932,0.7967,0.8,0.8032,0.8076,0.8113,0.8148,0.8187,0.8205,0.8212,0.8214,0.8213,0.8217,0.8201,0.8192,0.8207,0.8207,0.8207,0.8207,0.8207,0.8207,0.7743,0.7782,0.7801,0.7854,0.7879,0.7918,0.7938,0.7966,0.7992,0.804,0.8071,0.8094,0.8128,0.8169,0.8203,0.8212,0.8225,0.8225,0.8236,0.822,0.8219,0.8218,0.821,0.8228,0.8228,0.8249,0.8249,0.825]},{"header":{"parameterUnit":"m.s-1","parameterCategory":1,"la1":30.2991,"la2":30.254,"lo1":-89.0895,"lo2":-89.0444,"dy":0.0017,"dx":0.0017,"nx":28,"ny":28,"refTime":"2024-07-06T21:00:00:Z","depth":0,"parameterNumber":3,"parameterNumberName":"V-component_of_WINDS"},"data":[0,0,0,0,0,0,0,0,0,0,0,0,0,0,0,0,0,0,0,0,0,0,0,0,0,0,0,0,0,0,0,0,0,0,0,0,0,0,0,0,0,0,0,0,0,0,0,0,0,0,0,0,0,0,0,0,0,0,4.5782,4.5782,0,4.5757,4.5756,4.5756,4.5662,4.566,4.5658,4.5656,4.5631,4.5632,4.5634,0,0,0,0,0,0,0,0,0,0,0,0,0,4.575,4.5751,4.5782,4.5782,4.5781,4.5757,4.5756,4.5756,4.5663,4.566,4.5657,4.5655,4.5631,4.5632,4.5634,0,0,0,0,0,0,0,0,0,0,0,0,0,4.5748,4.5751,4.5782,4.5732,4.5727,4.5757,4.5756,4.5756,4.5663,4.566,4.5657,4.5654,4.563,4.5632,4.5634,4.5711,0,0,4.564,4.5641,0,0,0,0,0,0,0,0,4.5748,4.5749,4.5739,4.5735,4.573,4.5709,4.5736,4.5741,4.5664,4.5687,4.5656,4.5652,4.566,4.5659,4.5661,4.5709,4.5708,4.564,4.5642,4.5642,4.5643,0,0,0,0,0,0,0,4.5748,4.575,4.5772,4.5739,4.5734,4.571,4.5707,4.5736,4.5692,4.5685,4.5678,4.5676,4.5657,4.566,4.566,4.5708,4.564,4.5642,4.5643,4.5644,4.5815,4.5819,0,0,0,0,0,0,4.5756,4.5751,4.5773,4.5771,4.5731,4.5714,4.5709,4.5719,4.5691,4.5684,4.5679,4.5672,4.5658,4.5658,4.5659,4.5745,4.5642,4.5644,4.5645,4.5812,4.5816,4.582,0,0,0,0,0,0,4.5755,4.5759,4.5774,4.5759,4.5759,4.5718,4.5729,4.572,4.5723,4.5687,4.5679,4.5691,4.5655,4.5656,4.5698,4.5743,4.5645,4.5647,4.5808,4.5813,4.5818,4.5919,0,0,0,0,0,0,4.5755,4.5759,4.5788,4.576,4.576,4.5814,4.5732,4.5722,4.5727,4.5717,4.5695,4.5689,4.5653,4.5695,4.57,4.5744,4.5649,4.5804,4.5811,4.5816,4.5911,4.5927,4.594,0,0,0,0,0,4.5754,4.5818,4.579,4.5793,4.5795,4.5816,4.5816,4.5773,4.5731,4.5759,4.5736,4.5689,4.5738,4.5701,4.5705,4.575,4.5801,4.5809,4.5816,4.5905,4.5924,4.594,0,0,0,0,0,0,4.5852,4.5813,4.5782,4.5839,4.5831,4.58,4.5835,4.5795,4.58,4.5791,4.5738,4.5734,4.5783,4.5771,4.573,4.5822,4.5761,4.577,4.5828,4.5845,4.5859,4.586,4.565,0,0,0,0,0,4.5881,4.5901,4.5866,4.5919,4.5917,4.5877,4.5885,4.5852,4.5843,4.5839,4.5819,4.5811,4.5824,4.5834,4.5845,4.591,4.5903,4.5943,4.5957,4.5969,4.5977,4.6008,4.6025,4.5845,4.5845,4.5844,0,0,4.594,4.5921,4.5937,4.5939,4.5929,4.5951,4.5875,4.5902,4.5917,4.5843,4.5881,4.5866,4.5854,4.5907,4.593,4.5898,4.6025,4.5979,4.5988,4.599,4.6018,4.6035,4.605,4.585,4.5849,4.5848,0,0,4.6057,4.6046,4.6088,4.608,4.6066,4.6038,4.6049,4.6024,4.601,4.6047,4.5992,4.6009,4.6034,4.6027,4.6027,4.6141,4.6098,4.6146,4.622,4.6252,4.6266,4.6278,4.6317,4.6332,4.6154,4.6155,4.6155,0,4.6132,4.6162,4.6115,4.6144,4.6146,4.608,4.6122,4.6116,4.6107,4.611,4.6075,4.6103,4.6091,4.6141,4.6168,4.6171,4.6181,4.6148,4.6268,4.628,4.629,4.6327,4.6342,4.616,4.616,4.6159,4.6159,0,4.6253,4.6275,4.6311,4.6302,4.6308,4.6344,4.6302,4.6314,4.6282,4.6258,4.6295,4.6278,4.6283,4.6293,4.6262,4.6338,4.6319,4.6277,4.6215,4.6314,4.6347,4.6361,4.6169,4.6167,4.6165,4.6163,0,0,4.6432,4.6396,4.641,4.6404,4.6384,4.64,4.6432,4.6436,4.6447,4.6443,4.6468,4.649,4.645,4.645,4.6418,4.6446,4.6535,4.64,4.6398,4.6424,4.6616,4.6646,4.6663,4.6507,4.6509,4.6511,4.6616,0,4.6542,4.6595,4.6553,4.6613,4.6631,4.6569,4.6597,4.6587,4.6566,4.6579,4.6555,4.6571,4.6518,4.6518,4.6542,4.6519,4.6572,4.6511,4.6529,4.653,4.6532,4.6681,4.6714,4.6814,4.6629,4.6631,4.6633,0,4.6678,4.6678,4.674,4.6714,4.672,4.6746,4.6745,4.6758,4.6746,4.6729,4.6728,4.6688,4.6717,4.6658,4.6697,4.6656,4.6661,4.6651,4.6654,4.6652,4.6586,4.6682,4.6845,4.6859,4.6653,4.6652,4.665,0,4.6799,4.6816,4.6854,4.6852,4.6823,4.6842,4.6831,4.6815,4.682,4.682,4.6822,4.6826,4.6828,4.6832,4.6793,4.6754,4.6837,4.6775,4.6823,4.6824,4.6842,4.6841,4.7006,4.6849,4.6848,4.6848,4.6848,0,4.6926,4.6965,4.6908,4.6932,4.6974,4.6926,4.6969,4.6951,4.6938,4.6957,4.6904,4.6923,4.6871,4.6885,4.6855,4.6891,4.6893,4.6879,4.6871,4.6883,4.6885,4.6884,4.6876,4.6852,4.6851,4.685,4.685,0,4.7068,4.7031,4.7069,4.7038,4.7031,4.7064,4.7037,4.7057,4.7032,4.7057,4.706,4.7021,4.7034,4.6996,4.7004,4.6983,4.7036,4.7017,4.704,4.7033,4.7082,4.7078,4.7252,4.7271,4.7103,4.7105,4.7106,0,4.715,4.7179,4.7151,4.7159,4.7151,4.7165,4.7169,4.7123,4.7129,4.7117,4.7138,4.7147,4.7151,4.7175,4.7147,4.7152,4.7132,4.7192,4.7132,4.7143,4.7131,4.7129,4.7131,4.7204,4.7206,4.7208,4.721,0,4.73,4.728,4.7287,4.7288,4.7294,4.7293,4.7288,4.7298,4.7248,4.7258,4.727,4.7273,4.728,4.7289,4.7288,4.7276,4.7235,4.7229,4.724,4.7252,4.7263,4.7256,4.7072,4.7225,4.7223,4.7222,4.7221,4.7221,4.7413,4.7435,4.7418,4.7428,4.7419,4.7415,4.7432,4.7409,4.7418,4.7419,4.7392,4.7409,4.7395,4.7389,4.7382,4.7395,4.7367,4.7383,4.7387,4.7392,4.7399,4.7263,4.7395,4.7394,4.7394,4.7393,4.7393,0,4.7558,4.7544,4.7553,4.7547,4.7555,4.7514,4.7506,4.7515,4.7531,4.7521,4.7526,4.7539,4.7547,4.752,4.7524,4.754,4.7521,4.7542,4.754,4.7538,4.7425,4.7414,4.7558,4.7558,4.7557,4.7557,4.7557,4.7557,4.7634,4.7668,4.7646,4.7676,4.7661,4.7677,4.7676,4.7672,4.7663,4.768,4.7686,4.7668,4.7651,4.7653,4.7659,4.7651,4.7654,4.7682,4.7667,4.7562,4.7546,4.7531,4.752,4.7683,4.7684,4.7778,4.7779,4.778]}]]